Date,TemperatureHighF,TemperatureAvgF,TemperatureLowF,DewpointHighF,DewpointAvgF,DewpointLowF,HumidityHigh,HumidityAvg,HumidityLow,PressureMaxIn,PressureMinIn,WindSpeedMaxMPH,WindSpeedAvgMPH,GustSpeedMaxMPH,PrecipitationSumIn
2014-1-9,74,73,71,73,71,70,96,95,93,30.16,30.11,3,1,17,1.94
2014-1-10,79,75,68,73,71,67,97,89,81,30.15,30.05,12,2,19,7.07
2014-1-11,81,77,72,74,72,70,93,85,78,30.08,29.94,9,1,21,0.00
2014-1-12,75,71,65,71,64,59,94,79,61,30.14,29.99,11,2,17,0.00
2014-1-13,80,75,70,71,68,62,86,79,69,30.13,30.00,11,2,12,0.00
2014-1-14,82,75,68,72,68,65,96,81,60,30.00,29.90,9,1,19,0.00
2014-1-15,70,64,57,65,58,51,96,81,61,29.99,29.91,10,2,18,0.24
2014-1-16,58,55,44,54,41,29,88,64,33,30.11,29.93,12,3,24,0.01
2014-1-17,66,54,43,44,38,33,76,55,41,30.18,30.06,7,1,13,0.00
2014-1-18,66,56,49,48,40,34,85,57,32,30.20,30.11,7,2,19,0.00
2014-1-19,68,54,42,48,38,31,75,55,27,30.25,30.12,9,1,17,0.00
2014-1-20,74,64,54,59,54,48,89,72,52,30.16,30.01,6,1,13,0.00
2014-1-21,72,65,60,63,59,57,93,82,65,30.03,29.85,9,2,20,0.00
2014-1-22,62,56,49,60,39,31,94,56,33,30.14,29.85,14,3,23,0.01
2014-1-23,69,57,43,56,46,32,82,67,52,30.26,30.12,7,2,14,0.00
2014-1-24,68,61,56,55,53,51,87,75,59,30.34,30.20,11,2,21,0.00
2014-1-25,75,64,52,62,56,49,90,77,56,30.20,30.02,4,0,10,0.00
2014-1-26,70,60,54,59,56,53,96,87,57,30.06,30.00,0,0,9,0.00
2014-2-12,81,73,61,71,67,60,96,83,66,29.98,29.80,10,1,29,0.41
2014-2-13,70,65,56,67,58,49,97,78,60,29.94,29.71,21,4,27,0.05
2014-2-14,68,57,46,52,47,42,88,71,41,30.05,29.94,7,1,11,0.00
2014-2-15,78,65,54,61,54,43,92,70,51,30.09,29.95,13,2,21,0.00
2014-2-16,74,63,51,58,52,42,80,66,56,30.15,30.06,4,1,12,0.00
2014-2-17,75,68,57,61,57,52,88,69,57,30.19,30.11,6,1,13,0.00
2014-2-18,77,72,65,64,61,58,83,69,55,30.21,30.13,7,2,12,0.00
2014-2-19,79,75,71,66,64,62,75,70,62,30.15,30.06,7,1,12,0.00
2014-2-20,80,76,73,71,68,64,84,74,66,30.14,30.05,11,2,16,0.00
2014-2-21,82,78,75,73,72,70,90,83,72,30.08,30.00,9,0,19,0.00
2014-2-22,82,76,69,73,71,68,97,86,72,30.08,29.97,6,0,14,0.04
2014-2-23,82,75,68,74,72,67,98,89,75,30.06,29.96,5,0,14,0.31
2014-2-24,83,75,68,72,70,67,98,84,58,30.01,29.94,7,1,12,0.05
2014-2-25,83,75,69,71,69,65,97,83,54,30.00,29.90,6,1,14,0.01
2014-2-26,85,75,65,69,66,61,98,76,45,29.91,29.73,12,2,22,0.01
2014-2-27,77,71,64,70,65,62,93,81,64,29.91,29.74,10,1,15,0.06
2014-2-28,72,65,60,62,58,53,97,80,57,30.04,29.85,9,2,17,0.15
2014-3-1,77,69,58,64,59,56,93,72,52,30.13,30.02,10,2,15,0.01
2014-3-2,78,74,70,64,61,60,70,65,56,30.16,30.05,4,1,14,0.00
2014-3-3,80,73,64,65,63,60,90,70,58,30.06,29.96,5,1,13,0.02
2014-3-4,77,72,64,68,64,61,93,79,67,30.04,29.95,6,2,13,0.00
2014-3-5,82,75,70,72,68,65,95,80,67,30.01,29.90,5,0,18,0.11
2014-3-6,81,71,66,73,68,64,99,91,75,29.97,29.75,9,1,30,0.48
2014-3-7,78,70,60,67,61,54,96,75,47,30.00,29.76,14,4,25,0.01
2014-3-8,71,63,54,61,55,48,91,77,58,30.10,29.99,6,1,15,0.00
2014-3-9,75,69,62,65,62,60,96,80,63,30.15,30.06,4,1,14,0.01
2014-3-10,79,72,64,64,63,61,91,74,55,30.09,29.95,7,1,12,0.00
2014-3-11,79,72,60,68,64,58,90,77,61,30.00,29.84,5,0,14,0.00
2014-3-12,85,76,69,70,67,65,93,75,53,29.86,29.72,11,3,24,0.01
2014-3-13,74,66,62,68,55,44,86,68,50,30.13,29.82,14,5,24,0.00
2014-3-14,71,68,62,56,53,46,66,60,52,30.23,30.11,11,5,17,0.00
2014-3-15,78,72,62,61,59,53,85,63,50,30.15,30.03,7,1,13,0.00
2014-3-16,80,75,71,69,64,59,78,70,62,30.01,29.81,7,1,18,0.00
2014-3-17,81,77,73,73,71,68,89,83,75,29.82,29.71,10,2,18,0.18
2014-3-18,78,73,65,72,64,56,96,74,49,29.98,29.66,13,3,32,0.22
2014-3-19,79,71,62,64,62,60,95,75,61,30.04,29.95,6,1,11,0.00
2014-3-20,79,74,67,70,67,64,94,80,71,30.02,29.93,6,2,14,0.00
2014-3-21,80,73,63,71,67,62,96,81,73,30.03,29.93,11,2,13,0.00
2014-3-22,79,75,72,72,70,67,92,83,77,30.06,29.95,12,2,19,0.19
2014-3-23,82,75,67,73,68,65,95,79,62,30.03,29.91,4,0,12,0.00
2014-3-24,75,71,65,69,66,63,96,86,69,30.01,29.88,4,1,13,0.33
2014-3-25,76,69,64,70,65,53,98,86,66,29.97,29.80,12,2,21,0.30
2014-3-26,66,61,54,55,49,41,81,65,55,30.22,29.97,11,3,21,0.01
2014-3-27,73,70,65,63,58,53,75,67,59,30.27,30.15,12,6,23,0.00
2014-3-28,79,75,72,70,66,61,85,73,65,30.17,30.03,13,3,18,0.00
2014-3-29,80,75,68,75,71,66,92,87,82,30.07,29.89,7,2,25,0.02
2014-3-30,78,70,64,67,56,39,93,64,25,30.04,29.88,12,2,17,0.21
2014-3-31,74,68,58,64,57,50,81,70,55,30.11,30.03,7,2,14,0.01
2014-4-1,76,70,60,62,60,58,94,71,57,30.15,30.07,6,1,12,0.00
2014-4-2,77,73,68,62,60,58,75,65,58,30.16,30.09,6,2,13,0.00
2014-4-3,79,75,71,66,64,61,73,68,62,30.13,30.04,5,1,14,0.00
2014-4-4,81,76,73,66,65,64,77,69,58,30.06,29.98,4,0,14,0.00
2014-4-5,82,76,68,68,67,66,92,75,63,30.03,29.95,4,1,12,0.01
2014-4-6,82,73,67,68,67,65,95,81,64,30.01,29.97,3,0,15,0.00
2014-4-9,76,70,64,62,56,50,85,61,41,30.12,29.86,14,4,29,0.01
2014-4-10,76,73,69,59,54,49,64,52,44,30.24,30.11,7,4,17,0.00
2014-4-11,77,73,70,69,65,59,93,75,65,30.20,30.10,7,2,14,0.08
2014-4-12,79,75,72,67,65,62,80,71,58,30.15,30.05,14,5,19,0.01
2014-4-13,78,75,74,71,69,66,90,82,77,30.07,29.97,12,6,21,0.00
2014-4-14,83,78,75,74,72,70,89,82,74,29.98,29.88,5,1,13,0.00
2014-4-15,84,78,72,75,73,70,95,86,75,29.91,29.80,7,1,19,0.01
2014-4-16,78,74,70,72,69,66,95,85,75,30.05,29.88,11,4,19,0.00
2014-4-17,81,76,73,73,72,70,93,85,77,30.11,30.01,13,6,20,0.02
2014-4-18,82,78,74,74,72,70,93,82,73,30.07,29.93,7,2,17,0.84
2014-4-19,85,77,68,74,70,60,95,80,62,29.95,29.83,7,2,21,0.39
2014-4-20,75,68,64,64,61,57,84,77,65,30.01,29.91,9,2,17,0.00
2014-4-21,77,69,61,67,63,58,92,80,63,30.00,29.89,10,3,18,0.00
2014-4-22,82,74,67,69,66,64,90,79,63,29.92,29.82,6,0,8,0.02
2014-4-23,82,74,66,69,66,64,93,79,58,29.92,29.84,5,1,12,0.00
2014-4-24,82,76,67,72,69,63,86,77,67,29.99,29.89,7,1,14,0.00
2014-4-25,86,77,69,73,69,66,90,77,51,29.99,29.89,5,1,16,0.00
2014-4-26,82,78,70,73,71,67,91,80,68,29.98,29.89,10,2,17,0.00
2014-4-27,85,80,73,73,70,68,87,73,62,30.00,29.92,7,2,12,0.00
2014-4-28,85,81,77,75,73,67,85,77,68,29.97,29.88,7,2,13,0.03
2014-4-29,86,81,78,77,75,73,88,81,72,30.00,29.85,7,2,16,0.00
2014-4-30,86,81,78,77,76,74,91,83,71,30.04,29.93,6,1,13,0.03
2014-5-1,85,81,78,76,74,73,89,80,71,30.01,29.92,10,1,18,0.00
2014-5-2,86,80,76,74,73,71,89,79,67,29.96,29.84,10,2,17,0.00
2014-5-3,87,77,72,74,72,70,96,86,62,29.96,29.88,4,0,18,0.72
2014-5-4,80,74,67,71,65,61,96,75,53,30.03,29.93,10,3,17,0.01
2014-5-5,82,76,67,68,65,62,92,71,59,30.03,29.95,5,1,15,0.00
2014-5-6,82,77,66,70,67,62,92,72,60,30.02,29.95,7,2,13,0.00
2014-5-7,84,80,77,72,70,67,77,71,66,30.12,29.98,10,4,14,0.00
2014-5-8,83,80,77,72,70,67,78,72,66,30.17,30.07,11,4,15,0.00
2014-5-9,84,80,77,71,70,68,78,71,64,30.16,30.06,9,3,17,0.00
2014-5-10,84,80,77,73,71,69,79,74,68,30.12,30.04,11,3,17,0.00
2014-5-11,83,80,77,72,70,66,80,72,60,30.12,30.03,7,2,13,0.00
2014-5-12,84,80,78,73,71,69,82,74,64,30.10,30.02,11,5,19,0.01
2014-5-13,82,79,74,76,73,71,94,83,78,30.04,29.96,11,7,18,0.96
2014-5-14,85,80,74,75,74,71,94,80,69,30.03,29.94,10,3,19,0.32
2014-5-15,83,77,73,77,74,72,96,92,81,30.00,29.90,12,2,16,1.76
2014-5-16,77,73,68,72,66,54,96,80,52,30.05,29.92,7,2,15,0.01
2014-5-17,82,75,66,64,61,58,78,63,50,30.08,30.01,17,5,23,0.00
2014-5-18,80,77,74,65,63,59,68,63,57,30.09,30.03,11,6,20,0.00
2014-5-19,80,78,75,68,65,62,70,66,60,30.12,30.05,14,7,20,0.00
2014-5-20,82,78,75,67,66,63,73,66,58,30.16,30.08,12,5,17,0.00
2014-5-21,81,77,75,67,64,62,70,64,55,30.15,30.08,10,4,16,0.00
2014-5-22,82,76,68,67,65,64,89,70,59,30.12,30.03,7,1,12,0.00
2014-5-23,87,79,70,73,70,65,90,74,53,30.07,29.99,4,0,12,0.00
2014-5-24,87,80,72,74,71,68,89,74,58,30.06,29.99,4,1,14,0.00
2014-5-25,84,79,72,74,72,70,92,80,70,30.09,29.99,5,2,12,0.00
2014-5-26,85,81,78,75,72,70,83,76,69,30.14,30.05,10,1,13,0.00
2014-5-27,84,80,78,73,72,71,85,77,68,30.11,30.02,11,3,13,0.00
2014-5-28,85,81,77,75,73,70,85,78,69,30.06,29.97,7,1,13,0.00
2014-5-29,85,79,75,75,73,67,89,81,64,30.02,29.94,3,0,12,0.12
2014-5-30,84,79,73,75,73,68,92,81,72,30.00,29.94,9,2,13,0.02
2014-5-31,85,81,78,75,74,72,86,79,70,30.00,29.94,10,3,12,0.00
2014-6-1,84,81,79,76,74,73,84,79,72,30.02,29.94,11,5,16,0.00
2014-6-2,80,79,75,74,71,68,93,79,72,30.07,29.97,16,6,19,0.22
2014-6-3,81,78,77,68,66,63,74,67,55,30.03,29.95,10,4,16,0.00
2014-6-4,82,79,76,71,69,68,78,72,67,29.97,29.90,9,4,14,0.00
2014-6-5,83,80,75,70,69,68,80,69,61,29.95,29.87,7,2,13,0.00
2014-6-6,86,80,70,75,71,67,92,75,57,29.97,29.87,6,1,13,0.00
2014-6-7,89,82,75,77,74,71,95,78,58,29.97,29.90,7,1,11,0.00
2014-6-8,86,79,73,76,72,69,94,80,64,29.98,29.89,7,1,20,0.14
2014-6-9,86,79,72,77,73,70,95,82,70,29.98,29.87,5,0,12,0.01
2014-6-10,86,78,73,77,73,70,90,83,66,30.00,29.94,6,1,14,0.08
2014-6-11,87,78,72,77,73,71,96,87,70,30.00,29.92,4,0,11,0.07
2014-6-12,88,76,70,73,71,68,97,85,59,30.02,29.93,6,1,19,0.02
2014-6-13,85,76,70,76,72,68,97,89,69,30.03,29.95,5,0,17,0.01
2014-6-14,87,79,71,78,74,70,98,87,73,30.07,29.97,6,1,18,0.01
2014-6-15,86,82,78,78,75,73,88,81,72,30.10,30.00,7,2,12,0.01
2014-6-16,84,81,77,76,73,68,93,79,59,30.13,30.04,10,2,17,0.01
2014-6-17,83,77,73,74,72,68,95,84,72,30.13,30.03,5,1,18,0.75
2014-6-18,84,77,73,76,73,70,96,88,76,30.08,30.02,9,1,20,0.69
2014-6-19,86,78,72,76,73,70,96,86,70,30.09,30.01,6,0,11,0.03
2014-6-20,86,77,70,76,72,70,97,87,66,30.05,29.99,1,0,11,0.35
2014-6-21,89,77,73,78,73,70,96,87,59,30.01,29.92,2,0,16,0.32
2014-6-22,90,80,74,77,74,71,97,82,55,29.98,29.89,7,0,17,0.07
2014-6-23,88,82,74,78,74,70,95,79,64,30.07,29.93,9,1,12,0.00
2014-6-24,88,82,76,77,75,72,92,78,59,30.11,30.04,6,1,12,0.00
2014-6-25,87,82,75,78,76,74,94,83,73,30.11,30.01,5,1,12,0.00
2014-6-26,88,82,74,78,75,72,93,81,69,30.08,29.96,5,1,13,0.00
2014-6-27,87,82,76,78,76,72,94,80,69,30.09,29.99,4,1,12,0.00
2014-6-28,88,82,75,76,74,72,91,78,65,30.12,30.02,4,0,12,0.00
2014-6-29,92,80,75,76,73,71,92,82,53,30.10,30.00,10,1,27,0.73
2014-6-30,88,80,73,76,74,72,95,84,67,30.03,29.88,11,2,20,0.00
2014-7-1,83,80,77,77,76,75,95,88,76,29.88,29.78,5,1,13,0.05
2014-7-2,90,80,75,76,74,71,96,84,57,29.97,29.83,5,0,19,0.02
2014-7-3,90,84,77,80,76,71,95,80,63,30.07,29.96,7,1,17,0.00
2014-7-4,89,80,75,80,75,71,97,86,73,30.10,30.05,5,0,24,0.25
2014-7-5,87,80,75,79,75,72,95,85,74,30.11,30.03,7,0,11,0.06
2014-7-6,85,81,78,77,75,73,92,83,76,30.08,30.00,0,0,18,0.02
2014-7-7,85,82,78,78,76,74,90,83,76,30.09,29.99,5,1,10,0.17
2014-7-8,87,81,76,79,77,73,97,88,73,30.12,30.03,5,1,12,0.19
2014-7-9,87,77,74,78,74,71,98,92,71,30.10,30.04,5,0,13,1.24
2014-7-10,87,79,74,78,75,72,96,88,74,30.10,30.03,5,0,15,0.06
2014-7-11,87,84,76,78,76,73,92,79,72,30.12,30.04,8,2,14,0.01
2014-7-12,88,84,79,78,76,74,86,78,70,30.10,30.04,9,2,13,0.00
2014-7-13,89,84,80,78,76,75,86,77,66,30.07,30.02,9,1,14,0.00
2014-7-14,90,84,78,79,76,73,94,77,61,30.06,30.00,6,1,12,0.24
2014-7-15,86,79,74,78,74,69,94,86,72,30.01,29.94,5,1,19,0.22
2014-7-16,90,79,75,77,75,72,97,88,62,29.99,29.92,6,0,18,0.70
2014-7-17,85,78,72,78,74,70,96,88,73,30.03,29.93,11,0,34,0.56
2014-7-18,92,83,76,78,76,72,94,80,55,30.06,29.97,7,1,16,0.00
2014-7-19,88,83,76,78,77,75,96,81,70,30.06,29.98,6,2,11,0.00
2014-7-20,88,84,79,78,76,75,86,76,68,30.03,29.96,7,1,12,0.00
2014-7-21,88,81,77,78,76,75,91,84,68,30.04,29.96,6,0,15,0.08
2014-7-22,88,82,77,79,76,74,96,84,71,30.04,29.96,0,0,14,0.13
2014-7-23,88,82,78,79,77,75,95,85,71,30.08,29.99,3,0,15,0.43
2014-7-24,90,84,77,78,76,74,93,78,68,30.03,29.97,7,0,12,0.00
2014-7-25,89,84,78,79,77,74,91,80,69,30.07,29.99,6,1,11,0.00
2014-7-26,88,83,78,79,77,75,93,83,72,30.09,30.00,4,0,12,0.24
2014-7-27,91,84,77,78,76,74,92,78,60,30.08,30.01,2,0,17,0.00
2014-7-28,95,86,79,79,77,72,92,76,47,30.05,29.96,7,1,12,0.00
2014-7-29,93,84,79,79,76,73,94,79,57,30.00,29.92,5,0,14,0.10
2014-7-30,88,82,78,79,76,74,94,84,71,29.96,29.90,5,0,11,0.12
2014-7-31,90,82,78,78,76,74,92,82,67,29.98,29.91,5,0,12,0.00
2014-8-1,90,85,81,78,77,75,86,75,66,29.96,29.90,9,2,12,0.00
2014-8-2,88,84,80,79,77,75,90,79,71,29.95,29.86,7,2,12,0.00
2014-8-3,86,79,72,79,76,70,97,90,75,29.92,29.83,9,1,15,2.04
2014-8-4,86,77,74,78,74,72,97,92,72,29.99,29.85,1,0,17,1.64
2014-8-5,90,82,74,78,75,73,97,82,67,30.04,29.94,4,0,15,0.00
2014-8-6,89,83,77,78,76,74,92,80,67,30.04,29.96,5,1,12,0.00
2014-8-7,90,83,73,79,76,70,96,81,64,30.00,29.91,9,1,24,0.63
2014-8-8,90,82,75,78,76,73,98,84,65,30.02,29.95,6,0,11,0.02
2014-8-9,90,82,74,79,77,71,96,84,68,30.05,29.98,2,0,16,0.21
2014-8-10,91,83,76,79,76,70,98,82,66,30.05,29.96,5,0,17,0.01
2014-8-11,91,84,77,79,75,73,91,76,63,30.04,29.96,4,0,11,0.00
2014-8-12,90,83,77,78,75,73,90,78,65,30.01,29.94,2,0,15,0.51
2014-8-13,90,83,77,79,76,74,93,80,66,30.01,29.95,4,1,13,0.10
2014-8-14,90,83,78,80,77,75,94,82,67,30.02,29.95,1,0,11,1.16
2014-8-16,91,81,74,80,76,72,98,85,68,30.07,29.99,5,1,16,0.03
2014-8-17,89,83,76,80,77,74,97,83,71,30.08,30.01,5,0,10,0.01
2014-8-18,90,84,76,78,77,74,96,79,66,30.06,29.94,5,1,12,0.00
2014-8-19,90,85,79,79,77,74,92,77,61,30.02,29.93,5,1,10,0.00
2014-8-20,90,85,78,79,77,76,93,77,66,30.06,29.96,7,1,12,0.00
2014-8-21,90,85,79,79,78,76,92,79,70,30.09,30.01,6,1,12,0.01
2014-8-22,89,85,79,79,77,76,95,78,68,30.08,29.96,7,1,12,0.39
2014-8-23,89,85,78,79,77,75,91,77,68,29.98,29.83,12,2,14,0.00
2014-8-24,90,85,78,77,76,73,91,76,57,29.85,29.72,5,1,15,0.00
2014-8-25,89,84,80,80,77,74,91,80,70,29.76,29.69,18,5,24,0.00
2014-8-26,89,85,83,76,74,69,76,68,60,29.87,29.73,18,7,21,0.00
2014-8-27,89,85,81,77,74,69,75,70,61,29.96,29.85,7,3,15,0.00
2014-8-28,87,82,78,78,76,72,94,82,72,30.00,29.91,6,0,15,0.70
2014-8-29,90,84,77,80,78,72,95,82,68,30.07,29.95,9,1,13,0.00
2014-8-30,89,86,84,80,78,76,82,78,71,30.08,30.01,10,3,14,0.00
2014-8-31,89,85,78,78,76,69,89,76,64,30.09,30.02,9,3,15,0.06
2014-9-1,88,85,83,78,76,75,81,76,68,30.08,30.00,6,2,12,0.06
2014-9-2,88,83,77,77,75,73,90,76,69,30.05,29.96,11,2,16,0.46
2014-9-3,86,80,75,77,74,72,96,82,70,30.02,29.93,6,1,21,0.53
2014-9-4,86,80,74,77,75,71,97,84,74,30.08,29.99,5,0,16,0.73
2014-9-5,89,84,79,80,78,75,92,82,72,30.08,30.00,6,1,13,0.10
2014-9-6,86,82,80,79,77,75,89,83,78,30.03,29.93,11,1,19,0.05
2014-9-7,88,84,79,78,76,73,91,78,64,30.00,29.93,4,1,15,0.01
2014-9-8,88,84,75,77,75,72,90,75,66,30.03,29.95,5,1,12,0.00
2014-9-9,87,84,80,76,75,73,80,74,65,30.02,29.95,7,1,17,0.00
2014-9-10,87,83,80,77,75,72,84,77,69,29.99,29.91,8,2,15,0.00
2014-9-11,82,77,74,77,74,73,98,90,78,29.98,29.90,3,0,11,0.78
2014-9-12,86,80,74,76,74,72,98,84,69,29.98,29.87,5,1,16,1.06
2014-9-13,87,79,74,77,74,72,96,85,71,30.06,29.95,11,2,20,1.02
2014-9-14,88,79,72,76,73,70,97,82,64,30.11,30.01,9,1,17,0.82
2014-9-15,87,83,79,77,76,73,88,78,68,30.12,30.04,9,1,11,0.00
2014-9-16,87,81,77,78,76,74,93,83,70,30.09,29.94,5,0,10,0.09
2014-9-17,90,80,74,75,73,71,96,82,57,29.98,29.85,7,0,20,0.00
2014-9-18,86,80,75,77,74,72,94,84,68,29.91,29.83,5,0,10,0.00
2014-9-19,87,78,74,78,75,72,97,91,72,29.93,29.85,3,0,15,0.27
2014-9-20,89,79,74,78,75,73,98,88,62,29.93,29.83,4,0,20,0.05
2014-9-21,85,78,72,76,74,70,97,88,70,30.01,29.90,7,1,12,1.74
2014-9-22,85,78,72,77,75,71,99,89,75,30.02,29.92,5,1,9,0.01
2014-9-23,84,80,76,77,74,72,89,82,72,30.00,29.89,4,1,17,0.03
2014-9-24,84,80,74,78,75,71,96,84,74,30.02,29.93,6,1,14,0.03
2014-9-25,85,80,76,80,76,74,97,89,80,30.02,29.94,9,2,16,0.41
2014-9-26,85,80,74,79,76,73,98,90,78,29.98,29.90,7,1,19,1.69
2014-9-27,87,83,77,78,77,74,93,81,73,29.96,29.89,9,3,20,0.01
2014-9-28,86,83,77,78,76,74,96,81,72,29.96,29.87,10,3,20,0.01
2014-9-29,88,81,75,77,76,73,97,83,69,29.92,29.79,11,1,19,0.00
2014-9-30,87,79,75,79,75,73,98,89,73,29.84,29.77,6,1,16,0.00
2014-10-1,90,81,75,79,76,72,99,86,63,29.95,29.83,9,1,22,0.00
2014-10-2,91,83,76,78,75,72,98,80,53,30.01,29.90,5,1,16,0.00
2014-10-16,72,71,71,66,65,65,82,82,81,29.90,29.89,0,0,0,0.00
2014-10-17,82,73,65,65,60,49,85,66,31,29.95,29.87,3,1,11,0.00
2014-10-18,82,74,64,67,65,62,95,75,55,29.95,29.87,5,0,11,1.12
2014-10-19,83,77,68,68,67,64,92,73,59,29.99,29.92,7,2,11,0.00
2014-10-20,84,81,76,70,67,64,71,64,52,30.00,29.90,5,2,11,0.00